Powrót do katalogu

METEOR 2-17 DEB

AktywnyPO
NORAD 35369·DEBRIS·🇷🇺 Russia

Wystrzelony Jan 30, 1988 z Plesetsk Cosmodrome

Loading…

Następne Przeloty (najbliższe 24 godziny)

TLE

ŚwieżeSource: Space-Track

Epoka: Sep 14, 2026, 14:01 UTC

1 35369U 88005AD  26257.58410016  .00000891  00000-0  59915-3 0  9994
2 35369  82.5252 197.8971 0018327  68.1284  53.5973 13.99578839758402

Śledź METEOR 2-17 DEB w czasie rzeczywistym z AllMySat

Download on the App Store